If you wish to contribute or participate in the discussions about articles you are invited to join SKYbrary as a registered user

 Actions

Bardufoss

From SKYbrary Wiki

ENDU
Airport
ICAO: ENDU
Summary
Name Bardufoss
Region Europe
Territory Norway NO.gif
Location Bardufoss
Serving
Coordinates 69° 3' 21.08" N, 18° 32' 20.60" E
Runways
Designator Length Width Surface ROPS
10/28 2443 m8,015.092 ft
45 m147.638 ft
ASP yes/yes


METAR
Observation ENDU 260320Z 00000KT 9999 -RA FEW001 SCT018 BKN030 11/10 Q1012 RESHRA RMK WIND 1100FT 23005KT WIND 2200FT 26018KT
Station Bardufoss
Date/Time 26 August 2019 03:20:00
Wind direction
Wind speed 00 kts
Lowest cloud amount few clouds
Temperature 11°C
Dew point 10°C
Humidity 93%
QNH 1012 hPa
Weather condition light rain

CFIT
Tag(s) Altimeter Temperature Error Correction
GND
Tag(s) Aircraft Ground De/Anti Icing
RE
Tag(s) Landing on Contaminated Runways
WX
Tag(s) Low Level Turbulence

Bardufoss Airport

ICAO: ENDU IATA: BDU

Description

Civil/Military (RNoAF) airport serving the Målselvdalen valley region of northern Norway.

Climatology

Subarctic climate (Köppen climate classification Dfc) - Although not far from the coast, Bardufoss and Målselvdalen is known for a somewhat more continental climate, and hence, colder winters (but with less humidity and little wind) compared to the coastal areas.

Maps

Terrain

Loading map...

Airport Layout

Loading map...


Accidents & Serious Incidents at or in vicinity of ENDU

None on SKYbrary